(437370) = 2013 VE7

Discovered at Mount Lemmon on 2011-02-25 by Mt. Lemmon Survey.

Orbit

Orbit type: Main Belt

Note: WebGL enabled browser required.

epoch2024-03-31.0
epoch JD2460400.5
perihelion date2021-10-26.87561
perihelion JD2459514.37561
argument of perihelion (°)16.27004
ascending node (°)355.52549
inclination (°)11.91574
eccentricity0.1953623
perihelion distance (AU)2.0685999
Tisserand w.r.t. Jupiter3.4
ΔV w.r.t. Earth (km/sec)9.7
semimajor axis (AU)2.5708464
mean anomaly (°)211.87726
mean daily motion (°/day)0.23910560
aphelion distance (AU)3.073
period (years)4.12
P-vector [x]0.97841237
P-vector [y]0.15901951
P-vector [z]0.13199254
Q-vector [x]-0.20603340
Q-vector [y]0.80034675
Q-vector [z]0.56302337
absolute magnitude17.0
phase slope0.15
uncertainty0
referenceMPEC 2024-E190
observations used385
oppositions10
arc length (days)5809
first opposition used2007
last opposition used2023
residual rms (arc-secs)0.72
perturbers coarse indicatorM-v
perturbers precise indicator003Ek
first observation date used2007-04-20.0
last observation date used2023-03-16.0
computer nameMPCLINUX
Minimum Orbit Intersection Distances (in AU)
for orbit epoch: 2460400.5, reference: E2024-GB3
Mercury1.71773
Venus1.34885
Earth1.07044
Mars0.67726
Jupiter2.39199
Saturn6.37871
Uranus15.4056
Neptune27.5096

Observations

390 total observations over interval: 2007 04 20.20773 – 2023 03 16.272993
These data are available for download (format description).

Date (UT) J2000 RA J2000 Dec Magn Location Ref
2007 04 20.20773 11 37 15.85 -00 45 33.4 21.4 V G96 – Mt. Lemmon Survey MPS 497266
2007 04 20.21333 11 37 15.60 -00 45 32.6 21.7 V G96 – Mt. Lemmon Survey MPS 497266
2007 04 20.21899 11 37 15.38 -00 45 32.0 21.6 V G96 – Mt. Lemmon Survey MPS 497266
2007 04 20.22450 11 37 15.20 -00 45 31.0 21.5 V G96 – Mt. Lemmon Survey MPS 497266
2011 02 25.40186 11 48 29.01 +03 14 55.7 20.9 V G96 – Mt. Lemmon Survey MPS 497266
2011 02 25.40419 11 48 28.87 +03 14 56.3 21.1 V G96 – Mt. Lemmon Survey MPS 497266
2011 02 25.40940 11 48 28.58 +03 14 57.0 20.9 V G96 – Mt. Lemmon Survey MPS 497266
2011 02 25.41173 11 48 28.47 +03 14 57.1 21.6 V G96 – Mt. Lemmon Survey MPS 497266
2011 02 25.41691 11 48 28.18 +03 14 58.1 21.3 V G96 – Mt. Lemmon Survey MPS 497266
2011 02 25.41927 11 48 28.04 +03 14 59.2 21.5 V G96 – Mt. Lemmon Survey MPS 497266
2011 02 25.42449 11 48 27.82 +03 14 59.2 21.6 V G96 – Mt. Lemmon Survey MPS 497266
2011 02 25.42681 11 48 27.64 +03 15 00.3 21.8 V G96 – Mt. Lemmon Survey MPS 497266
2011 03 09.48417 11 37 22.753 +03 48 02.61 21.0 r F51 – Pan-STARRS 1, Haleakala MPS 497266
2011 03 09.49528 11 37 22.093 +03 48 04.40 20.9 r F51 – Pan-STARRS 1, Haleakala MPS 497266
2011 03 09.52335 11 37 20.417 +03 48 09.40 21.3 g F51 – Pan-STARRS 1, Haleakala MPS 497266
2011 03 14.37918 11 32 38.22 +04 02 05.8 19.9 V G96 – Mt. Lemmon Survey MPS 497266
2011 03 14.38720 11 32 37.75 +04 02 07.1 20.0 V G96 – Mt. Lemmon Survey MPS 497266
2011 03 14.39525 11 32 37.28 +04 02 08.7 20.9 V G96 – Mt. Lemmon Survey MPS 497266
2011 03 14.40340 11 32 36.81 +04 02 10.0 20.3 V G96 – Mt. Lemmon Survey MPS 497266
2011 04 02.30006 11 15 28.912 +04 47 58.53 22.0 w F51 – Pan-STARRS 1, Haleakala MPS 497266
2011 04 02.33138 11 15 27.357 +04 48 01.81 22.0 w F51 – Pan-STARRS 1, Haleakala MPS 497266
2011 04 02.34648 11 15 26.624 +04 48 03.56 21.8 w F51 – Pan-STARRS 1, Haleakala MPS 497266
2013 10 10.97285 03 04 45.34 +31 35 47.4 20.2 V D00 – ASC-Kislovodsk Observatory MPS 490042
2013 10 10.98398 03 04 44.77 +31 35 52.5 20.5 V D00 – ASC-Kislovodsk Observatory MPS 490042
2013 10 10.99514 03 04 44.37 +31 35 57.2 20.1 V D00 – ASC-Kislovodsk Observatory MPS 490042
2013 10 11.00626 03 04 43.94 +31 36 02.8 20.7 V D00 – ASC-Kislovodsk Observatory MPS 490042
2013 10 16.38505 03 00 33.28 +32 11 54.6 19.9 R 926 – Tenagra II Observatory, Nogales MPS 487306
2013 10 16.41546 03 00 31.61 +32 12 05.8 20.1 R 926 – Tenagra II Observatory, Nogales MPS 487306
2013 10 16.43800 03 00 30.39 +32 12 13.5 19.7 R 926 – Tenagra II Observatory, Nogales MPS 487306
2013 10 24.34348 02 52 46.51 +32 51 28.8 19.2 V 703 – Catalina Sky Survey MPS 487306
2013 10 24.34977 02 52 46.03 +32 51 30.1 18.7 V 703 – Catalina Sky Survey MPS 487306
2013 10 24.35605 02 52 45.56 +32 51 32.1 19.0 V 703 – Catalina Sky Survey MPS 487306
2013 10 31.14582 02 45 04.12 +33 10 52.7 19.4 r I41 – Palomar Mountain--ZTF MPS 492109
2013 10 31.33433 02 44 50.33 +33 11 15.2 19.4 r I41 – Palomar Mountain--ZTF MPS 492109
2013 11 01.31706 02 43 40.57 +33 12 52.2 19.5 r I41 – Palomar Mountain--ZTF MPS 492109
2013 11 01.34276 02 43 38.66 +33 12 54.3 19.4 r I41 – Palomar Mountain--ZTF MPS 492109
2013 11 02.04970 02 42 48.19 +33 13 51.4 19.5 V J75 – OAM Observatory, La Sagra MPS 487306
2013 11 02.05385 02 42 47.83 +33 13 52.4 19.2 V J75 – OAM Observatory, La Sagra MPS 487306
2013 11 02.05801 02 42 47.54 +33 13 52.4 19.7 V J75 – OAM Observatory, La Sagra MPS 487306
2013 11 02.24485 02 42 34.57 +33 14 07.0 19.3 r I41 – Palomar Mountain--ZTF MPS 492109
2013 11 02.34184 02 42 27.34 +33 14 14.4 19.5 r I41 – Palomar Mountain--ZTF MPS 492109
2013 11 03.20138 02 41 26.17 +33 15 08.2 19.4 r I41 – Palomar Mountain--ZTF MPS 492109
2013 11 03.31413 02 41 17.76 +33 15 15.4 19.3 r I41 – Palomar Mountain--ZTF MPS 492109
2013 11 04.19639 02 40 14.80 +33 15 55.2 19.2 r I41 – Palomar Mountain--ZTF MPS 492109
2013 11 04.26760 02 40 09.49 +33 15 58.8 19.3 r I41 – Palomar Mountain--ZTF MPS 492109
2013 11 04.36864 02 40 01.92 +33 16 02.4 19.1 r I41 – Palomar Mountain--ZTF MPS 492109
2013 11 05.39130 02 38 48.47 +33 16 29.7 19.4 r I41 – Palomar Mountain--ZTF MPS 485426
2013 11 05.39357 02 38 48.32 +33 16 29.7 19.4 r I41 – Palomar Mountain--ZTF MPS 485426
2013 11 05.41595 02 38 46.65 +33 16 29.8 19.4 r I41 – Palomar Mountain--ZTF MPS 485426
2013 11 05.41822 02 38 46.48 +33 16 29.9 19.3 r I41 – Palomar Mountain--ZTF MPS 485426
2013 11 06.31821 02 37 42.32 +33 16 39.4 19.4 r I41 – Palomar Mountain--ZTF MPS 485426
2013 11 06.34279 02 37 40.49 +33 16 39.4 19.3 r I41 – Palomar Mountain--ZTF MPS 485426
2013 11 09.34680 02 34 07.41 +33 15 30.5 19.3 r I41 – Palomar Mountain--ZTF MPS 487306
2013 11 09.38842 02 34 04.38 +33 15 28.0 19.4 r I41 – Palomar Mountain--ZTF MPS 487306
2013 11 09.41557 02 34 02.42 +33 15 26.4 19.1 r I41 – Palomar Mountain--ZTF MPS 487306
2013 11 10.31402 02 32 59.92 +33 14 37.8 19.4 V G96 – Mt. Lemmon Survey MPS 487306
2013 11 10.32171 02 32 59.36 +33 14 37.4 19.4 V G96 – Mt. Lemmon Survey MPS 487306
2013 11 10.32940 02 32 58.79 +33 14 36.9 19.4 V G96 – Mt. Lemmon Survey MPS 487306
2013 11 10.33709 02 32 58.25 +33 14 36.3 19.4 V G96 – Mt. Lemmon Survey MPS 487306
2013 11 11.12601 02 32 04.28 +33 13 40.9 19.5 r I41 – Palomar Mountain--ZTF MPS 487306
2013 11 11.25518 02 31 55.07 +33 13 32.8 19.4 r I41 – Palomar Mountain--ZTF MPS 487306
2013 11 11.28203 02 31 53.14 +33 13 30.8 19.4 r I41 – Palomar Mountain--ZTF MPS 487306
2013 11 29.79023 02 14 41.61 +32 17 58.8 20.1 V D00 – ASC-Kislovodsk Observatory MPS 490042
2013 11 29.80120 02 14 41.25 +32 17 56.6 20.0 V D00 – ASC-Kislovodsk Observatory MPS 490042
2013 11 29.81221 02 14 40.69 +32 17 53.4 20.1 V D00 – ASC-Kislovodsk Observatory MPS 490042
2013 11 29.82958 02 14 40.08 +32 17 49.5 20.7 V D00 – ASC-Kislovodsk Observatory MPS 490042
2015 01 27.62210 11 33 05.220 +08 36 32.90 21.5 w F51 – Pan-STARRS 1, Haleakala MPS 585713
2015 01 27.63423 11 33 04.868 +08 36 34.05 21.6 w F51 – Pan-STARRS 1, Haleakala MPS 585713
2015 01 27.64631 11 33 04.524 +08 36 34.86 21.7 w F51 – Pan-STARRS 1, Haleakala MPS 585713
2015 01 29.61809 11 32 08.123 +08 39 21.44 21.5 w F51 – Pan-STARRS 1, Haleakala MPS 567666
2015 01 29.63025 11 32 07.727 +08 39 22.55 21.8 w F51 – Pan-STARRS 1, Haleakala MPS 567666
2015 01 29.64235 11 32 07.360 +08 39 23.78 21.6 w F51 – Pan-STARRS 1, Haleakala MPS 567666
2015 01 29.65449 11 32 06.976 +08 39 24.55 21.3 w F51 – Pan-STARRS 1, Haleakala MPS 567666
2015 02 16.40592 11 19 46.146 +09 19 28.92 21.3 w F51 – Pan-STARRS 1, Haleakala MPS 580415
2015 02 16.41736 11 19 45.520 +09 19 30.67 21.1 w F51 – Pan-STARRS 1, Haleakala MPS 580415
2015 02 16.42881 11 19 44.913 +09 19 32.69 21.2 w F51 – Pan-STARRS 1, Haleakala MPS 580415
2015 02 16.44025 11 19 44.301 +09 19 34.60 21.2 w F51 – Pan-STARRS 1, Haleakala MPS 580415
2015 02 17.53895 11 18 46.546 +09 22 40.76 21.3 w F51 – Pan-STARRS 1, Haleakala MPS 580415
2015 02 17.55065 11 18 45.904 +09 22 42.81 21.4 w F51 – Pan-STARRS 1, Haleakala MPS 580415
2015 02 17.56249 11 18 45.250 +09 22 44.81 21.2 w F51 – Pan-STARRS 1, Haleakala MPS 580415
2015 02 17.57439 11 18 44.601 +09 22 46.90 21.3 w F51 – Pan-STARRS 1, Haleakala MPS 580415
2015 03 09.39532 10 59 37.46 +10 18 25.6 20.7 V G96 – Mt. Lemmon Survey MPS 585713
2015 03 09.40261 10 59 37.02 +10 18 26.6 20.7 V G96 – Mt. Lemmon Survey MPS 585713
2015 03 09.40991 10 59 36.58 +10 18 28.0 20.6 V G96 – Mt. Lemmon Survey MPS 585713
2015 03 09.41721 10 59 36.16 +10 18 29.2 20.7 V G96 – Mt. Lemmon Survey MPS 585713
2015 03 09.45818 10 59 33.72 +10 18 35.6 20.3 V G96 – Mt. Lemmon Survey MPS 585713
2015 03 09.46069 10 59 33.50 +10 18 35.6 20.7 V G96 – Mt. Lemmon Survey MPS 585713
2015 03 09.46317 10 59 33.37 +10 18 37.1 20.7 V G96 – Mt. Lemmon Survey MPS 585713
2015 03 09.46565 10 59 33.21 +10 18 37.0 20.7 V G96 – Mt. Lemmon Survey MPS 585713
2015 03 14.32106 10 54 51.188 +10 29 40.86 21.0 w F51 – Pan-STARRS 1, Haleakala MPS 587233
2015 03 14.33366 10 54 50.467 +10 29 42.42 21.1 w F51 – Pan-STARRS 1, Haleakala MPS 587233
2015 03 14.35916 10 54 48.952 +10 29 45.73 21.0 w F51 – Pan-STARRS 1, Haleakala MPS 587233
2015 04 10.24762 10 34 54.345 +10 48 25.57 21.5 w F51 – Pan-STARRS 1, Haleakala MPS 598553
2015 04 10.25958 10 34 53.998 +10 48 25.10 21.8 w F51 – Pan-STARRS 1, Haleakala MPS 598553
2015 04 10.27158 10 34 53.643 +10 48 24.39 21.6 w F51 – Pan-STARRS 1, Haleakala MPS 598553
2015 04 10.28375 10 34 53.270 +10 48 23.81 21.9 w F51 – Pan-STARRS 1, Haleakala MPS 598553
